Regional Weather Roundup
Issued by NWS

Home | Current Version | Previous Version | Graphics & Text | Print | Product List | Glossary On
Versions: 1 2 3 4 5 6 7 8 9 10 11 12 13 14 15 16 17 18 19 20 21 22 23 24 25 26 27
000
ASUS45 KCYS 241210
RWRWY

WYOMING REGIONAL WEATHER ROUNDUP
NATIONAL WEATHER SERVICE CHEYENNE WY
600 AM MDT SAT JUN 24 2017

NOTE:  "FAIR" INDICATES FEW OR NO CLOUDS BELOW 12,000 FEET
WITH NO SIGNIFICANT WEATHER AND/OR OBSTRUCTIONS TO VISIBILITY.

WYZ001-241300-
YELLOWSTONE NATIONAL PARK

CITY           SKY/WX    TMP DP  RH WIND       PRES   REMARKS
LK YELLOWSTONE   N/A     29  26  89 CALM      30.44R
6HR MIN TEMP:  28; 6HR MAX TEMP:  38;

W YELLOWSTONE  NOT AVBL

$$
WYZ002>013-054>058-071-098>099-241300-
NORTHERN WYOMING

CITY           SKY/WX    TMP DP  RH WIND       PRES   REMARKS
JACKSON        FAIR      37  34  87 NE7       30.37S WCI  32
CODY           FAIR      46  35  65 S5        30.36R
GREYBULL       FAIR      49  35  58 CALM      30.30R
6HR MIN TEMP:  48; 6HR MAX TEMP:  59;

WORLAND        FAIR      41  32  70 SE5       30.31R
6HR MIN TEMP:  40; 6HR MAX TEMP:  57;

SHERIDAN       CLOUDY    49  43  80 CALM      30.31R
6HR MIN TEMP:  44; 6HR MAX TEMP:  50;

BUFFALO        MOCLDY    47  34  60 NW3       30.34R
6HR MIN TEMP:  44; 6HR MAX TEMP:  54;

GILLETTE       CLOUDY    49  40  71 CALM      30.30R
6HR MIN TEMP:  38; 6HR MAX TEMP:  49;

NEWCASTLE      FAIR      43  30  61 NW5       30.31R

$$
WYZ014>020-022>026-101>103-241300-
CENTRAL WYOMING

CITY           SKY/WX    TMP DP  RH WIND       PRES   REMARKS
BIG PINEY      FAIR      34  26  72 N10       30.39R WCI  26
6HR MIN TEMP:  32; 6HR MAX TEMP:  50;

PINEDALE       FAIR      34  28  80 NW5       30.40R WCI  30
DUBOIS         FAIR      36  28  75 NW9       30.42R WCI  29
LANDER         FAIR      45  32  60 CALM      30.34R
6HR MIN TEMP:  40; 6HR MAX TEMP:  53;

RIVERTON       FAIR      41  31  67 NW8       30.35R
6HR MIN TEMP:  41; 6HR MAX TEMP:  56;

CASPER         FAIR      39  33  79 W3        30.33R
6HR MIN TEMP:  37; 6HR MAX TEMP:  44;

DOUGLAS        CLOUDY    45  39  79 CALM      30.32S
6HR MIN TEMP:  43; 6HR MAX TEMP:  50;


$$
WYZ021-027>030-104>119-241300-
SOUTHERN WYOMING

CITY           SKY/WX    TMP DP  RH WIND       PRES   REMARKS
EVANSTON       FAIR      47  31  53 SE9       30.36R
6HR MIN TEMP:  43; 6HR MAX TEMP:  56;

KEMMERER         N/A     41  30  65 N9        30.38R
FORT BRIDGER   FAIR      45  30  57 CALM      30.39R
ROCK SPRINGS   FAIR      45  29  53 CALM      30.36R
6HR MIN TEMP:  43; 6HR MAX TEMP:  54;

DIXON          FAIR      40  31  72 CALM      30.34R
RAWLINS        FAIR      44  27  51 NE9       30.35R
6HR MIN TEMP:  44; 6HR MAX TEMP:  53;

SARATOGA       FAIR      39  30  70 W6        30.35R WCI  35
LARAMIE        CLOUDY    47  32  56 CALM      30.36R
6HR MIN TEMP:  41; 6HR MAX TEMP:  48;

CHEYENNE       CLOUDY    51  31  46 N3        30.34R
6HR MIN TEMP:  50; 6HR MAX TEMP:  54;

TORRINGTON     CLOUDY    52  36  54 CALM      30.29S
6HR MIN TEMP:  49; 6HR MAX TEMP:  55;

PINE BLUFFS    CLOUDY    50  43  76 NE3       30.33R

$$




USA.gov is the U.S. government's official web portal to all federal, state and local government web resources and services.